Weather Roundup
Issued by NWS Chicago, IL

Home | Current Version | Previous Version | Graphics & Text | Print | Product List | Glossary On
Versions: 1 2 3 4 5 6 7 8 9 10 11 12 13 14 15 16 17 18 19 20 21 22 23 24 25 26 27 28 29 30 31 32 33 34 35 36 37 38 39 40 41 42 43 44 45 46 47 48 49 50
000
NZUS59 KLOT 111406
HRRLOT

CHICAGO AREA WEATHER ROUNDUP
NATIONAL WEATHER SERVICE CHICAGO/ROMEOVILLE IL
900 AM CDT FRI JUL 11 2014

NOTE: "FAIR" INDICATES FEW OR NO CLOUDS BELOW 12,000 FEET WITH NO
SIGNIFICANT WEATHER AND/OR OBSTRUCTIONS TO VISIBILITY.

* THESE STATIONS ARE NOT UNDER NWS QUALITY CONTROL. THEY ALSO MAY NOT
  REPORT WEATHER SUCH AS PRECIPITATION OR FOG.

ILZ005-006-012>014-019>023-111500-
NORTHEAST ILLINOIS

CITY           SKY/WX    TMP DP  RH WIND       PRES   REMARKS
OHARE          MOSUNNY   72  51  47 S3        30.21F
MIDWAY         MOSUNNY   74  52  46 S5        30.22S
AURORA         SUNNY     70  57  63 S5        30.22S
LANSING*       SUNNY     70  55  57 SW5       30.23S
JOLIET*        SUNNY     70  55  59 SE5       30.22F
WAUKEGAN       SUNNY     71  53  52 S7        30.21S
DUPAGE AIRPORT SUNNY     72  56  57 S5        30.21F
WHEELING       SUNNY     73  53  49 S5        30.22F
KANKAKEE*      SUNNY     69  60  71 CALM      30.24R
MORRIS*        SUNNY     71  60  68 SE5       30.21F
LEWIS AIRPORT* SUNNY     70  56  60 S6        30.22F
NORTHERLY IS     N/A     70  59  68 SE6         N/A
$$

WIZ051-052-058>065-066-070>072-111500-
SOUTHEAST WISCONSIN

CITY           SKY/WX    TMP DP  RH WIND       PRES   REMARKS
MILWAUKEE      MOSUNNY   72  54  53 S9        30.20F
KENOSHA*       SUNNY     72  56  57 SW8       30.21F
RACINE*        SUNNY     72  54  53 S8        30.21F
BURLINGTON     SUNNY     69  57  66 SW5       30.20F
WAUKESHA       SUNNY     68  54  60 S6        30.20F
WEST BEND      SUNNY     70  54  56 S7        30.19F
$$

INZ001>003-010>013-019-020-111500-
NORTHWEST INDIANA

CITY           SKY/WX    TMP DP  RH WIND       PRES   REMARKS
GARY*          MOSUNNY   72  55  56 S3        30.24R
MICHIGAN CITY* NOT AVBL
RENSSELAER*    NOT AVBL
VALPARAISO     SUNNY     69  55  60 S3        30.24R
$$

LMZ740>746-111500-
SOUTHERN LAKE MICHIGAN

STATION/POSITION TIME  SKY/WX   TEMP WIND        PRES    VSBY
                                AIR  DIR/SP/G
                 (UTC)          (F)  (DEG/KT/KT) (MB)    (MI)
HARRISON CRIB    1400            68  150/  6/  7   N/A
BURNHAM HARBOR   1400            70  110/  4/  5   N/A
CALUMET HARBOR   1400            70  180/  5/  5 1024.1F
BURNS HARBOR     NOT AVBL
MICHIGAN CITY    1400            70  140/  6/  8   N/A
$$

ABBREVIATIONS USED IN REMARKS
   TC - TEMPERATURE IN CELSIUS
  WCI - WIND CHILL INDEX
   HX - HEAT INDEX
  VSB - VISIBILITY
$$



USA.gov is the U.S. government's official web portal to all federal, state and local government web resources and services.